[[{"header":{"parameterUnit":"m.s-1","parameterCategory":1,"la1":30.2991,"la2":30.254,"lo1":-89.0895,"lo2":-89.0444,"dy":0.0017,"dx":0.0017,"nx":28,"ny":28,"refTime":"2024-07-03T03:00:00:Z","depth":0,"parameterNumber":2,"parameterNumberName":"U-component_of_WINDS"},"data":[0,0,0,0,0,0,0,0,0,0,0,0,0,0,0,0,0,0,0,0,0,0,0,0,0,0,0,0,0,0,0,0,0,0,0,0,0,0,0,0,0,0,0,0,0,0,0,0,0,0,0,0,0,0,0,0,0,0,1.258,1.2579,0,1.2533,1.2533,1.2532,1.2424,1.2422,1.242,1.2418,1.2372,1.2373,1.2374,0,0,0,0,0,0,0,0,0,0,0,0,0,1.2575,1.2576,1.258,1.2579,1.2579,1.2533,1.2533,1.2532,1.2425,1.2422,1.2419,1.2417,1.2372,1.2373,1.2374,0,0,0,0,0,0,0,0,0,0,0,0,0,1.2558,1.2576,1.258,1.2519,1.2514,1.2533,1.2533,1.2532,1.2425,1.2422,1.2419,1.2415,1.2372,1.2373,1.2374,1.245,0,0,1.2378,1.2379,0,0,0,0,0,0,0,0,1.2559,1.2558,1.2529,1.2524,1.2517,1.2481,1.2514,1.2504,1.2426,1.2459,1.2418,1.2414,1.2411,1.2409,1.2408,1.2447,1.2445,1.2378,1.2379,1.238,1.238,0,0,0,0,0,0,0,1.256,1.2559,1.2561,1.2529,1.2521,1.2495,1.2488,1.2512,1.2455,1.2456,1.2448,1.2444,1.2407,1.2407,1.2406,1.2445,1.2378,1.2379,1.238,1.2381,1.254,1.2544,0,0,0,0,0,0,1.257,1.2561,1.2563,1.256,1.253,1.2497,1.249,1.2496,1.2454,1.2444,1.2447,1.2439,1.2406,1.2405,1.2404,1.2487,1.238,1.2381,1.2382,1.2537,1.2541,1.2545,0,0,0,0,0,0,1.257,1.2571,1.2565,1.2558,1.2555,1.2501,1.2508,1.2497,1.2496,1.2447,1.2436,1.2457,1.2404,1.2402,1.2438,1.2484,1.2381,1.2383,1.2533,1.2538,1.2543,1.2656,0,0,0,0,0,0,1.2571,1.2572,1.26,1.256,1.2556,1.26,1.2511,1.2498,1.2499,1.2488,1.2454,1.2445,1.2401,1.2437,1.2439,1.2484,1.2384,1.2529,1.2535,1.2541,1.2648,1.2665,1.2679,0,0,0,0,0,1.2571,1.2635,1.2602,1.2603,1.259,1.2603,1.2601,1.2549,1.2503,1.253,1.2498,1.2446,1.2479,1.2441,1.2443,1.2489,1.2525,1.2533,1.2541,1.2641,1.2661,1.2678,0,0,0,0,0,0,1.2684,1.2629,1.2592,1.2645,1.2629,1.2585,1.2618,1.2572,1.257,1.256,1.2496,1.2489,1.2533,1.2515,1.2474,1.2558,1.2493,1.2502,1.2569,1.2588,1.2603,1.2606,1.2385,0,0,0,0,0,1.2715,1.273,1.2681,1.2732,1.2726,1.2674,1.2677,1.2638,1.262,1.2613,1.2583,1.2568,1.2574,1.258,1.2583,1.2645,1.2635,1.2677,1.2692,1.2705,1.2713,1.2742,1.276,1.257,1.257,1.257,0,0,1.278,1.2751,1.2764,1.2754,1.2737,1.2753,1.2669,1.269,1.2701,1.2616,1.2647,1.2625,1.2603,1.2652,1.2672,1.2638,1.2763,1.2715,1.2726,1.2727,1.2752,1.277,1.2786,1.2576,1.2575,1.2574,0,0,1.2905,1.2885,1.2925,1.2909,1.2884,1.2848,1.2858,1.282,1.2801,1.2832,1.2767,1.2779,1.2793,1.2779,1.2774,1.2891,1.2842,1.2894,1.2974,1.3003,1.3018,1.303,1.3071,1.3086,1.2902,1.2902,1.2903,0,1.2988,1.3009,1.2951,1.2975,1.2972,1.2894,1.2933,1.2921,1.2899,1.2898,1.286,1.2873,1.2853,1.2896,1.2924,1.2923,1.2931,1.2898,1.302,1.3032,1.3043,1.3081,1.3097,1.2909,1.2908,1.2907,1.2907,0,1.3112,1.3128,1.3163,1.3142,1.3142,1.3174,1.312,1.3127,1.3087,1.3056,1.3086,1.3059,1.3055,1.3062,1.3024,1.3099,1.3078,1.3032,1.2965,1.3069,1.3103,1.3117,1.2918,1.2916,1.2914,1.2912,0,0,1.3309,1.3253,1.3267,1.3255,1.3221,1.3231,1.3259,1.3253,1.326,1.3247,1.3268,1.3279,1.3234,1.3229,1.3188,1.3214,1.3306,1.3163,1.3161,1.3189,1.3384,1.3419,1.3437,1.3273,1.3276,1.3278,1.3386,0,1.3425,1.3468,1.3415,1.347,1.3482,1.3407,1.343,1.3412,1.3382,1.3389,1.3356,1.3365,1.3306,1.3302,1.3323,1.329,1.3344,1.3282,1.3291,1.3292,1.3298,1.3455,1.3493,1.3596,1.3399,1.3401,1.3403,0,1.3567,1.3558,1.3614,1.3573,1.3576,1.3599,1.3588,1.3595,1.3571,1.3548,1.354,1.3491,1.3514,1.345,1.348,1.3439,1.3439,1.3423,1.3426,1.3425,1.3353,1.3457,1.3628,1.3643,1.3424,1.3422,1.342,0,1.3702,1.3705,1.3738,1.373,1.3685,1.3701,1.3683,1.3656,1.3655,1.3646,1.3644,1.3639,1.3635,1.3632,1.3582,1.354,1.3618,1.3549,1.3598,1.36,1.3618,1.3618,1.3791,1.362,1.362,1.362,1.362,0,1.3837,1.3874,1.3798,1.3818,1.3856,1.3794,1.3834,1.3808,1.3784,1.3797,1.3733,1.3746,1.368,1.3687,1.3648,1.3678,1.3678,1.3659,1.3648,1.3664,1.3666,1.3663,1.3654,1.3624,1.3623,1.3622,1.3622,0,1.3995,1.3946,1.3976,1.3929,1.3918,1.3948,1.3908,1.3924,1.389,1.3907,1.3908,1.3854,1.3858,1.3808,1.3803,1.3777,1.3824,1.3801,1.3832,1.3824,1.3876,1.3871,1.4052,1.4072,1.3891,1.3892,1.3894,0,1.4084,1.411,1.4065,1.4069,1.4053,1.406,1.4058,1.3998,1.3999,1.3972,1.3992,1.399,1.3986,1.3996,1.3956,1.3952,1.3927,1.3991,1.3926,1.3941,1.3927,1.3925,1.3927,1.4005,1.4007,1.4009,1.401,0,1.4246,1.422,1.4219,1.421,1.4209,1.4198,1.4184,1.4191,1.4125,1.4129,1.4132,1.4128,1.4122,1.4121,1.4108,1.4088,1.4039,1.4031,1.4042,1.4058,1.4074,1.4065,1.3868,1.4027,1.4026,1.4024,1.4023,1.4023,1.4371,1.439,1.436,1.4361,1.4343,1.4331,1.4343,1.4309,1.431,1.4299,1.4264,1.4272,1.4246,1.4223,1.4208,1.4214,1.4182,1.4199,1.4203,1.4207,1.4216,1.4074,1.4211,1.4211,1.421,1.421,1.4209,0,1.4528,1.4505,1.4506,1.4487,1.4488,1.4439,1.442,1.4424,1.4431,1.4411,1.4407,1.4409,1.4407,1.4367,1.436,1.4372,1.4349,1.4372,1.437,1.4366,1.4245,1.4236,1.4391,1.4391,1.4391,1.4391,1.439,1.439,1.461,1.4638,1.4608,1.4626,1.4603,1.4609,1.4602,1.459,1.4573,1.4578,1.4575,1.4548,1.4519,1.4509,1.4505,1.4493,1.4493,1.4524,1.4505,1.4392,1.4375,1.4358,1.4349,1.4525,1.4525,1.4624,1.4625,1.4626]},{"header":{"parameterUnit":"m.s-1","parameterCategory":1,"la1":30.2991,"la2":30.254,"lo1":-89.0895,"lo2":-89.0444,"dy":0.0017,"dx":0.0017,"nx":28,"ny":28,"refTime":"2024-07-03T03:00:00:Z","depth":0,"parameterNumber":3,"parameterNumberName":"V-component_of_WINDS"},"data":[0,0,0,0,0,0,0,0,0,0,0,0,0,0,0,0,0,0,0,0,0,0,0,0,0,0,0,0,0,0,0,0,0,0,0,0,0,0,0,0,0,0,0,0,0,0,0,0,0,0,0,0,0,0,0,0,0,0,4.0864,4.0865,0,4.0954,4.0955,4.0956,4.0936,4.0934,4.0932,4.0931,4.1019,4.1023,4.1027,0,0,0,0,0,0,0,0,0,0,0,0,0,4.0667,4.0671,4.0863,4.0865,4.0866,4.0954,4.0955,4.0957,4.0936,4.0934,4.0932,4.093,4.1018,4.1023,4.1027,0,0,0,0,0,0,0,0,0,0,0,0,0,4.0754,4.0672,4.0863,4.0866,4.0867,4.0954,4.0955,4.0957,4.0936,4.0934,4.0931,4.0929,4.1016,4.1022,4.1028,4.1116,0,0,4.1046,4.1049,0,0,0,0,0,0,0,0,4.0749,4.0762,4.0865,4.0866,4.0868,4.0931,4.0919,4.101,4.0937,4.091,4.093,4.0927,4.0992,4.0999,4.1022,4.112,4.1124,4.1047,4.105,4.1053,4.1054,0,0,0,0,0,0,0,4.0743,4.0758,4.0899,4.0866,4.0868,4.0861,4.0871,4.0936,4.0964,4.0912,4.0911,4.0922,4.0992,4.1016,4.1024,4.1125,4.1046,4.1052,4.1055,4.1058,4.1298,4.1301,0,0,0,0,0,0,4.0737,4.0753,4.0896,4.0902,4.0801,4.0867,4.0878,4.0913,4.0963,4.0968,4.0924,4.0921,4.1007,4.1017,4.1027,4.1132,4.1053,4.1058,4.1062,4.1295,4.1298,4.1302,0,0,0,0,0,0,4.0733,4.075,4.0893,4.0827,4.0845,4.0873,4.0913,4.0916,4.0941,4.0972,4.0977,4.0944,4.1006,4.1019,4.1094,4.1134,4.1061,4.1066,4.1292,4.1296,4.13,4.1343,0,0,0,0,0,0,4.0727,4.0749,4.0783,4.0828,4.0848,4.096,4.0916,4.092,4.0952,4.0948,4.0992,4.0997,4.1005,4.1085,4.11,4.1141,4.1071,4.1288,4.1294,4.1299,4.1338,4.1348,4.1357,0,0,0,0,0,4.072,4.0791,4.0785,4.0803,4.0893,4.0962,4.0974,4.0982,4.0955,4.0989,4.1009,4.0996,4.1128,4.1093,4.1109,4.1153,4.1286,4.1292,4.1298,4.1334,4.1346,4.1356,0,0,0,0,0,0,4.0749,4.0797,4.0791,4.0879,4.0917,4.0959,4.1002,4.0995,4.104,4.1035,4.1042,4.1052,4.1128,4.1149,4.1109,4.124,4.1203,4.1213,4.1224,4.1236,4.1245,4.1238,4.1076,0,0,0,0,0,4.0767,4.082,4.0859,4.0932,4.0952,4.0974,4.1004,4.1008,4.1046,4.1062,4.1087,4.1124,4.1174,4.1206,4.1254,4.1341,4.1349,4.1379,4.1389,4.1396,4.1404,4.145,4.1463,4.1322,4.1322,4.1322,0,0,4.0802,4.0834,4.0868,4.0939,4.0969,4.1022,4.0987,4.1046,4.1085,4.107,4.1142,4.1163,4.1204,4.1285,4.1322,4.1304,4.1445,4.1404,4.141,4.1414,4.1457,4.1471,4.1482,4.1327,4.1326,4.1325,0,0,4.0892,4.0924,4.0988,4.1018,4.1064,4.1078,4.1093,4.1136,4.1149,4.1223,4.1212,4.1258,4.1344,4.1373,4.14,4.1501,4.1489,4.1516,4.1564,4.1609,4.162,4.163,4.1664,4.1676,4.1524,4.1524,4.1525,0,4.093,4.1012,4.1021,4.1081,4.1112,4.1102,4.1166,4.1194,4.1252,4.1273,4.1253,4.1359,4.1387,4.1474,4.1498,4.1521,4.1537,4.151,4.1618,4.1628,4.1637,4.1669,4.1683,4.1527,4.1527,4.1527,4.1526,0,4.1054,4.1111,4.1157,4.1215,4.1251,4.1312,4.1329,4.1364,4.1364,4.138,4.1453,4.1486,4.1539,4.1561,4.1561,4.1647,4.1634,4.1616,4.1578,4.1653,4.1684,4.1696,4.1531,4.153,4.1529,4.1529,0,0,4.1165,4.1228,4.1244,4.1269,4.1319,4.1362,4.1422,4.1475,4.1504,4.1544,4.1593,4.1666,4.1649,4.1679,4.1683,4.1722,4.1797,4.1698,4.1699,4.1714,4.1892,4.1904,4.1918,4.1791,4.1793,4.1795,4.1888,0,4.1259,4.1367,4.1376,4.1472,4.1523,4.1514,4.1566,4.1601,4.1617,4.1662,4.1679,4.173,4.1705,4.1722,4.1761,4.178,4.1833,4.1774,4.1834,4.1836,4.1822,4.1935,4.1948,4.2034,4.19,4.1902,4.1904,0,4.1383,4.1428,4.1529,4.1569,4.1591,4.1638,4.1686,4.173,4.1769,4.1777,4.1811,4.1809,4.1868,4.183,4.1911,4.1871,4.1896,4.1909,4.1913,4.1917,4.1873,4.194,4.2062,4.2074,4.1923,4.1921,4.192,0,4.1451,4.1537,4.1608,4.163,4.168,4.1713,4.1735,4.1771,4.1802,4.1844,4.1864,4.1912,4.1938,4.1975,4.1985,4.1957,4.2065,4.2028,4.2072,4.2072,4.2094,4.2092,4.2219,4.2114,4.2114,4.2114,4.2113,0,4.1554,4.1615,4.1639,4.1682,4.175,4.176,4.1827,4.1847,4.1879,4.1925,4.192,4.1963,4.1975,4.2019,4.2028,4.2093,4.2105,4.2112,4.2113,4.2112,4.211,4.2127,4.212,4.2117,4.2116,4.2116,4.2115,0,4.1641,4.166,4.1736,4.1778,4.1789,4.1837,4.1871,4.1912,4.1928,4.1985,4.1999,4.2023,4.2075,4.209,4.2152,4.2158,4.2233,4.223,4.222,4.2219,4.2262,4.2257,4.2403,4.2421,4.2306,4.2307,4.2308,0,4.1705,4.1752,4.1798,4.1829,4.1853,4.1902,4.1934,4.1945,4.1978,4.2025,4.206,4.2111,4.2153,4.2236,4.2258,4.2305,4.2301,4.2349,4.2308,4.2304,4.2299,4.2295,4.2299,4.2356,4.2357,4.2358,4.2359,0,4.1814,4.1821,4.1868,4.1917,4.1955,4.1994,4.2032,4.2057,4.2073,4.211,4.2164,4.2196,4.2259,4.231,4.2357,4.2378,4.2371,4.2372,4.2384,4.2382,4.2374,4.2376,4.2239,4.2368,4.2367,4.2366,4.2366,4.2366,4.189,4.1931,4.197,4.2021,4.2051,4.2086,4.2125,4.2146,4.2191,4.2244,4.2248,4.2306,4.2342,4.2405,4.2428,4.2472,4.2458,4.2476,4.248,4.2484,4.2487,4.2368,4.2481,4.2481,4.2481,4.248,4.248,0,4.1998,4.2022,4.207,4.2122,4.2162,4.2154,4.2194,4.2228,4.2279,4.2313,4.2355,4.2415,4.2464,4.249,4.2537,4.2567,4.2565,4.2579,4.2576,4.2581,4.2498,4.2482,4.258,4.258,4.258,4.258,4.258,4.258,4.2058,4.2126,4.2137,4.2219,4.2243,4.23,4.2323,4.2355,4.2382,4.245,4.2491,4.2508,4.2539,4.2589,4.2632,4.2639,4.2655,4.2671,4.2675,4.2597,4.2587,4.2577,4.2561,4.2675,4.2676,4.2754,4.2755,4.2755]}]]